Location: Rotheul
(50.2849°N, 11.2349°E)
Time: 04:36:48
(UTC+02:00)

ISS - Pass Details

Date: 19 May 2018
Orbit: 402 x 407 km, 51.6° (Epoch: 26 May)

Event Time Altitude Azimuth Distance (km) Brightness Sun altitude
Exits shadow 02:30:05 13° 279° (W) 1,296 -1.4 -17.9°
Maximum altitude 02:32:56 66° 2° (N) 442 -3.5 -17.7°
Drops below altitude 10° 02:36:11 10° 85° (E) 1,457 -0.7 -17.5°
Sets 02:38:16 0° 89° (E) 2,317 0.3 -17.4°
